Simultaneous Nadir Overpasses (SNOs) Predictions

Prediction of SNOs between GOES-17 and TERRA Satellite Orbit:

Table of predicted SNOs for the next 14.0 days since TLE Epoch: 10/1/2022
Index Date Time (GOES-17) GOES-17 Lat,Lon TERRA Lat,Lon Distance(km) Time Diff (sec)
1 10/02/2022 07:25:26 0.07,-137.32 -0.06,-137.96 72.62 80
2 10/04/2022 07:15:48 0.06,-137.29 0.53,-134.99 261.16 80
3 10/04/2022 19:34:22 -0.06,-137.28 0.57,-140.14 326.18 80
4 10/06/2022 19:24:44 -0.05,-137.24 -0.04,-137.17 8.01 80
5 10/08/2022 19:12:26 -0.05,-137.21 -0.66,-134.21 340.89 80
6 10/09/2022 07:33:49 0.05,-137.20 -0.41,-139.40 250.22 80
7 10/11/2022 07:18:51 0.05,-137.16 0.23,-136.44 82.95 80
8 10/13/2022 07:09:12 0.05,-137.12 0.82,-133.46 415.46 80
9 10/13/2022 19:27:46 -0.05,-137.10 0.26,-138.62 172.36 80
